[[{"header":{"parameterUnit":"m.s-1","parameterCategory":1,"la1":30.2991,"la2":30.254,"lo1":-89.0895,"lo2":-89.0444,"dy":0.0017,"dx":0.0017,"nx":28,"ny":28,"refTime":"2025-09-03T21:00:00:Z","depth":0,"parameterNumber":2,"parameterNumberName":"U-component_of_WINDS"},"data":[0,0,0,0,0,0,0,0,0,0,0,0,0,0,0,0,0,0,0,0,0,0,0,0,0,0,0,0,0,0,0,0,0,0,0,0,0,0,0,0,0,0,0,0,0,0,0,0,0,0,0,0,0,0,0,0,0,0,0.9916,0.9916,0,0.9907,0.9907,0.9907,0.9904,0.9904,0.9904,0.9904,0.9895,0.9894,0.9894,0,0,0,0,0,0,0,0,0,0,0,0,0,0.9928,0.9928,0.9916,0.9916,0.9916,0.9907,0.9907,0.9907,0.9904,0.9904,0.9904,0.9904,0.9895,0.9894,0.9894,0,0,0,0,0,0,0,0,0,0,0,0,0,0.9921,0.9927,0.9916,0.9913,0.9913,0.9907,0.9907,0.9907,0.9904,0.9904,0.9904,0.9904,0.9895,0.9894,0.9894,0.989,0,0,0.9893,0.9892,0,0,0,0,0,0,0,0,0.9922,0.9921,0.9914,0.9913,0.9913,0.9907,0.9908,0.9901,0.9904,0.9907,0.9904,0.9904,0.9899,0.9898,0.9896,0.989,0.989,0.9893,0.9892,0.9892,0.9892,0,0,0,0,0,0,0,0.9922,0.9921,0.9913,0.9914,0.9913,0.9912,0.9911,0.9907,0.9903,0.9907,0.9907,0.9906,0.9898,0.9896,0.9896,0.9889,0.9893,0.9892,0.9892,0.9892,0.9878,0.9878,0,0,0,0,0,0,0.9923,0.9921,0.9913,0.9912,0.9917,0.9911,0.991,0.9909,0.9903,0.9902,0.9906,0.9906,0.9897,0.9896,0.9895,0.989,0.9892,0.9892,0.9891,0.9878,0.9878,0.9878,0,0,0,0,0,0,0.9923,0.9922,0.9913,0.9917,0.9916,0.9911,0.9909,0.9909,0.9907,0.9902,0.9901,0.9905,0.9897,0.9896,0.9891,0.9889,0.9892,0.9891,0.9878,0.9878,0.9878,0.9879,0,0,0,0,0,0,0.9924,0.9923,0.9922,0.9917,0.9915,0.991,0.9909,0.9908,0.9906,0.9906,0.9901,0.99,0.9897,0.9892,0.9891,0.9889,0.9891,0.9878,0.9878,0.9878,0.9879,0.9879,0.9878,0,0,0,0,0,0.9924,0.9923,0.9922,0.9921,0.9914,0.991,0.9909,0.9906,0.9906,0.9905,0.9901,0.99,0.989,0.9891,0.989,0.9888,0.9878,0.9878,0.9878,0.9879,0.9879,0.9878,0,0,0,0,0,0,0.9928,0.9922,0.9921,0.9918,0.9914,0.9909,0.9908,0.9906,0.9902,0.9902,0.9898,0.9897,0.9892,0.989,0.9892,0.9883,0.9884,0.9883,0.9885,0.9885,0.9885,0.9885,0.989,0,0,0,0,0,0.9928,0.9925,0.992,0.9918,0.9916,0.9912,0.991,0.9908,0.9904,0.9902,0.9899,0.9895,0.989,0.9887,0.9883,0.9878,0.9876,0.9876,0.9876,0.9876,0.9875,0.9871,0.987,0.9877,0.9877,0.9877,0,0,0.9929,0.9926,0.9924,0.9919,0.9916,0.9912,0.9911,0.9908,0.9904,0.9902,0.9897,0.9894,0.9889,0.9883,0.9881,0.9881,0.9873,0.9875,0.9875,0.9875,0.987,0.987,0.9869,0.9877,0.9877,0.9877,0,0,0.9929,0.9926,0.9923,0.992,0.9915,0.9912,0.9911,0.9906,0.9904,0.9899,0.9896,0.9892,0.9885,0.9881,0.9878,0.9874,0.9872,0.9873,0.9872,0.9867,0.9867,0.9866,0.9863,0.9863,0.9872,0.9872,0.9872,0,0.993,0.9925,0.9922,0.9918,0.9915,0.9912,0.9909,0.9905,0.9899,0.9897,0.9897,0.9887,0.9884,0.9877,0.9875,0.9874,0.9871,0.9873,0.9867,0.9866,0.9866,0.9863,0.9862,0.9872,0.9872,0.9872,0.9872,0,0.9927,0.9923,0.9921,0.9915,0.9912,0.9908,0.9903,0.99,0.9898,0.9895,0.9888,0.9884,0.9878,0.9876,0.9874,0.9868,0.9868,0.9868,0.9868,0.9865,0.9863,0.9862,0.9872,0.9872,0.9872,0.9872,0,0,0.9929,0.992,0.992,0.9916,0.9909,0.9906,0.9901,0.9896,0.9892,0.9888,0.9883,0.9876,0.9875,0.9872,0.9869,0.9866,0.9861,0.9865,0.9865,0.9864,0.9852,0.9852,0.9851,0.9859,0.9859,0.9859,0.9852,0,0.9927,0.9919,0.9916,0.9909,0.9904,0.9901,0.9896,0.9891,0.9888,0.9883,0.9879,0.9873,0.9873,0.9871,0.9867,0.9862,0.9858,0.9863,0.9854,0.9854,0.9855,0.9849,0.985,0.9843,0.9851,0.9851,0.9851,0,0.9924,0.9919,0.9912,0.9904,0.9902,0.9899,0.9892,0.9888,0.9881,0.9879,0.9874,0.9871,0.9865,0.9866,0.9856,0.9859,0.9855,0.9852,0.9852,0.9851,0.9852,0.9847,0.9841,0.984,0.9849,0.9849,0.9849,0,0.9925,0.9917,0.9911,0.9908,0.9899,0.9897,0.9893,0.9886,0.9882,0.9876,0.9873,0.9867,0.9863,0.9857,0.9852,0.9853,0.9842,0.9843,0.9839,0.9839,0.9837,0.9837,0.9829,0.9836,0.9836,0.9836,0.9836,0,0.9923,0.9919,0.9911,0.9907,0.9902,0.9897,0.9891,0.9887,0.9881,0.9875,0.9872,0.9867,0.986,0.9854,0.985,0.9842,0.9841,0.9837,0.9836,0.9837,0.9838,0.9834,0.9834,0.9835,0.9835,0.9836,0.9836,0,0.9924,0.9919,0.9912,0.9903,0.9901,0.9897,0.989,0.9885,0.9881,0.9874,0.9872,0.9865,0.9857,0.9851,0.9842,0.9839,0.983,0.9829,0.9832,0.9831,0.9827,0.9827,0.9816,0.9814,0.9823,0.9823,0.9823,0,0.9923,0.9919,0.991,0.9906,0.9902,0.9896,0.9891,0.9886,0.9881,0.9872,0.9869,0.9861,0.9854,0.9842,0.9835,0.9827,0.9826,0.9822,0.9824,0.9825,0.9824,0.9824,0.9823,0.9822,0.9822,0.9822,0.9822,0,0.992,0.9918,0.9912,0.9904,0.9899,0.9893,0.9886,0.9883,0.9876,0.9871,0.9863,0.9857,0.9847,0.9838,0.9829,0.9824,0.9821,0.9821,0.982,0.982,0.9822,0.982,0.983,0.9821,0.9822,0.9822,0.9822,0.9822,0.9919,0.9915,0.9908,0.99,0.9895,0.9889,0.9884,0.9878,0.9871,0.9862,0.9859,0.985,0.9842,0.9829,0.9824,0.9816,0.9817,0.9815,0.9814,0.9813,0.9813,0.9823,0.9815,0.9815,0.9815,0.9815,0.9815,0,0.9916,0.9911,0.9904,0.9895,0.9889,0.9887,0.9879,0.9874,0.9866,0.9859,0.9852,0.9841,0.9833,0.9825,0.9815,0.9811,0.9809,0.9808,0.9808,0.9807,0.9814,0.9816,0.981,0.981,0.981,0.981,0.981,0.981,0.9914,0.9906,0.9902,0.989,0.9885,0.9876,0.9872,0.9865,0.9859,0.9848,0.9841,0.9836,0.9827,0.9817,0.9809,0.9806,0.9803,0.9802,0.9799,0.9806,0.9807,0.9807,0.9809,0.9802,0.9802,0.9793,0.9793,0.9793]},{"header":{"parameterUnit":"m.s-1","parameterCategory":1,"la1":30.2991,"la2":30.254,"lo1":-89.0895,"lo2":-89.0444,"dy":0.0017,"dx":0.0017,"nx":28,"ny":28,"refTime":"2025-09-03T21:00:00:Z","depth":0,"parameterNumber":3,"parameterNumberName":"V-component_of_WINDS"},"data":[0,0,0,0,0,0,0,0,0,0,0,0,0,0,0,0,0,0,0,0,0,0,0,0,0,0,0,0,0,0,0,0,0,0,0,0,0,0,0,0,0,0,0,0,0,0,0,0,0,0,0,0,0,0,0,0,0,0,2.1048,2.1049,0,2.1079,2.1079,2.108,2.1034,2.1033,2.1031,2.103,2.1061,2.1064,2.1066,0,0,0,0,0,0,0,0,0,0,0,0,0,2.0949,2.0951,2.1048,2.1049,2.1049,2.1079,2.1079,2.108,2.1035,2.1033,2.1031,2.1029,2.1061,2.1063,2.1066,0,0,0,0,0,0,0,0,0,0,0,0,0,2.0987,2.0952,2.1048,2.103,2.1029,2.1079,2.1079,2.108,2.1035,2.1033,2.103,2.1028,2.106,2.1063,2.1067,2.1136,0,0,2.1077,2.1079,0,0,0,0,0,0,0,0,2.0985,2.0991,2.1033,2.1032,2.103,2.105,2.1056,2.1099,2.1036,2.1033,2.103,2.1027,2.106,2.1063,2.1074,2.1137,2.1139,2.1078,2.108,2.1081,2.1082,0,0,0,0,0,0,0,2.0983,2.099,2.106,2.1033,2.1032,2.102,2.1023,2.1064,2.1059,2.1033,2.103,2.1034,2.1059,2.1071,2.1075,2.1139,2.1078,2.1081,2.1083,2.1084,2.1257,2.126,0,0,0,0,0,0,2.0982,2.0988,2.106,2.1061,2.1001,2.1024,2.1027,2.1046,2.1059,2.1058,2.1036,2.1032,2.1066,2.107,2.1075,2.1155,2.1081,2.1084,2.1086,2.1255,2.1258,2.126,0,0,0,0,0,0,2.098,2.0989,2.1058,2.1024,2.1032,2.1028,2.105,2.1048,2.106,2.1061,2.106,2.1049,2.1064,2.1071,2.112,2.1155,2.1086,2.1089,2.1252,2.1256,2.1259,2.1316,0,0,0,0,0,0,2.0978,2.0989,2.1016,2.1025,2.1034,2.1103,2.1052,2.1051,2.1066,2.1061,2.1073,2.1073,2.1063,2.1115,2.1124,2.1159,2.1092,2.1249,2.1253,2.1258,2.1311,2.1321,2.133,0,0,0,0,0,2.0974,2.1031,2.1017,2.1026,2.1067,2.1106,2.1111,2.1098,2.107,2.1096,2.1096,2.1073,2.115,2.1121,2.113,2.1167,2.1246,2.1252,2.1258,2.1306,2.1319,2.133,0,0,0,0,0,0,2.1028,2.1032,2.1017,2.1078,2.1092,2.1098,2.1131,2.1112,2.1134,2.1128,2.1112,2.1115,2.1168,2.1172,2.1139,2.1233,2.1193,2.1201,2.1227,2.1239,2.1249,2.1246,2.1095,0,0,0,0,0,2.1046,2.1077,2.108,2.1134,2.1141,2.1135,2.1151,2.114,2.1153,2.1159,2.1163,2.1176,2.1203,2.1222,2.1247,2.1311,2.1312,2.1341,2.135,2.1358,2.1365,2.1396,2.1408,2.1279,2.1279,2.1279,0,0,2.1086,2.1092,2.1113,2.1145,2.1154,2.1185,2.114,2.1176,2.1199,2.1165,2.1211,2.1214,2.1228,2.1285,2.131,2.129,2.14,2.1365,2.1372,2.1374,2.1403,2.1415,2.1426,2.1283,2.1282,2.1281,0,0,2.1173,2.1182,2.1226,2.1236,2.125,2.1245,2.1255,2.1264,2.1264,2.131,2.1284,2.1311,2.1359,2.1369,2.1381,2.1469,2.1447,2.1478,2.1527,2.1558,2.1568,2.1576,2.1606,2.1617,2.1484,2.1484,2.1485,0,2.122,2.1267,2.1252,2.1289,2.1302,2.1271,2.1315,2.1325,2.1347,2.1357,2.1335,2.1392,2.14,2.1456,2.1477,2.1489,2.1499,2.1476,2.1567,2.1576,2.1584,2.1612,2.1623,2.1488,2.1487,2.1487,2.1487,0,2.1323,2.1356,2.139,2.141,2.1427,2.1468,2.1458,2.1477,2.1464,2.1461,2.1507,2.1515,2.1539,2.1552,2.1541,2.1607,2.1594,2.157,2.153,2.16,2.1625,2.1636,2.1493,2.1491,2.149,2.149,0,0,2.1446,2.1455,2.1467,2.1475,2.1486,2.1511,2.1549,2.1573,2.1588,2.1604,2.1634,2.1674,2.1651,2.1664,2.1653,2.168,2.1746,2.1652,2.1652,2.1668,2.1817,2.1833,2.1846,2.1732,2.1734,2.1736,2.1815,0,2.1531,2.1596,2.1582,2.1645,2.1674,2.1644,2.1676,2.1687,2.1684,2.1708,2.1705,2.1733,2.1702,2.1709,2.1734,2.1733,2.1776,2.1727,2.1759,2.176,2.1755,2.186,2.1878,2.1952,2.1825,2.1827,2.1828,0,2.1639,2.1657,2.1723,2.1727,2.1738,2.1768,2.1786,2.181,2.182,2.1816,2.1829,2.1812,2.1848,2.1809,2.1857,2.1825,2.1837,2.1838,2.184,2.1842,2.1797,2.1862,2.1976,2.1986,2.1844,2.1843,2.1841,0,2.1719,2.1759,2.1803,2.1811,2.1817,2.1838,2.1842,2.185,2.1864,2.188,2.1889,2.191,2.1921,2.1938,2.1926,2.1899,2.1976,2.1936,2.1972,2.1972,2.1989,2.1988,2.2104,2.2,2.2,2.2,2.1999,0,2.1814,2.1855,2.1838,2.1865,2.1909,2.1893,2.1937,2.1937,2.1944,2.1969,2.1945,2.197,2.1954,2.1977,2.1968,2.2008,2.2014,2.2011,2.2008,2.2012,2.2012,2.2019,2.2012,2.2002,2.2002,2.2001,2.2001,0,2.1911,2.1901,2.1946,2.1948,2.1949,2.1982,2.1983,2.2007,2.2002,2.2035,2.2041,2.2034,2.2059,2.2049,2.2077,2.2071,2.2122,2.2113,2.2118,2.2115,2.2151,2.2147,2.2275,2.2289,2.2177,2.2178,2.2179,0,2.1971,2.2002,2.2006,2.202,2.2025,2.205,2.2064,2.2048,2.2063,2.2075,2.2098,2.2121,2.2138,2.218,2.2177,2.2197,2.2187,2.223,2.219,2.2192,2.2185,2.2182,2.2184,2.2238,2.2239,2.224,2.2241,0,2.2079,2.2072,2.2092,2.211,2.2126,2.214,2.2152,2.2165,2.215,2.2168,2.2192,2.2206,2.2232,2.2255,2.2272,2.2276,2.2255,2.2254,2.2263,2.2267,2.2268,2.2265,2.2138,2.2251,2.225,2.2249,2.2249,2.2248,2.2158,2.2182,2.2188,2.221,2.2217,2.2227,2.2249,2.2246,2.2267,2.2286,2.2276,2.2304,2.2311,2.2332,2.2338,2.236,2.2343,2.2357,2.236,2.2363,2.2366,2.2265,2.2363,2.2363,2.2363,2.2362,2.2362,0,2.2262,2.2264,2.2285,2.23,2.2317,2.2296,2.2307,2.2323,2.2348,2.2356,2.2373,2.24,2.2421,2.2419,2.2438,2.2455,2.2446,2.2461,2.2458,2.2459,2.2382,2.2371,2.2467,2.2467,2.2467,2.2467,2.2467,2.2467,2.2319,2.2358,2.2351,2.2392,2.2394,2.242,2.2428,2.2437,2.2443,2.2474,2.2491,2.2489,2.2492,2.2511,2.2529,2.2528,2.2535,2.2552,2.2548,2.2475,2.2465,2.2455,2.2444,2.2555,2.2555,2.2622,2.2623,2.2624]}]]